Regional Weather Roundup
Issued by NWS Newport/Morehead, NC

Current Version | Previous Version | Graphics & Text | Print | Product List | Glossary Off
Versions: 1 2 3 4 5 6 7 8 9 10 11 12 13 14 15 16 17 18 19 20 21 22 23 24 25 26 27 28 29 30 31 32 33 34 35 36 37 38 39 40 41 42 43 44 45 46 47 48 49 50

000
ASUS42 KMHX 091725
RWRMHX
WEATHER ROUNDUP FOR EASTERN NORTH CAROLINA
NATIONAL WEATHER SERVICE NEWPORT/MOREHEAD CITY NC
1200 PM EST FRI DEC 09 2016

NOTE: "FAIR" INDICATES FEW OR NO CLOUDS BELOW 12,000 FEET
WITH NO SIGNIFICANT WEATHER AND/OR OBSTRUCTIONS TO VISIBILITY

NCZ015>017-031-032-045>047-102-103-091800-
NORTH COAST

CITY           SKY/WX    TMP DP  RH WIND       PRES   REMARKS
EDENTON        SUNNY     42  20  42 NW9G17    30.35F
ELIZABETH CITY SUNNY     40  20  44 NW12      30.33F
KITTY HAWK     SUNNY     40  26  56 NW7       30.30F
MANTEO         SUNNY     40  22  49 NW8       30.32F

$$

NCZ045>047-081-094-103-104-091800-
CENTRAL COAST

CITY           SKY/WX    TMP DP  RH WIND       PRES   REMARKS
FRISCO         SUNNY     43  25  49 N8        30.31F

$$

NCZ095-097-098-100-101-091800-
SOUTHERN COAST

CITY           SKY/WX    TMP DP  RH WIND       PRES   REMARKS
BEAUFORT       SUNNY     44  23  43 N14G20    30.34F
CEDAR ISLAND   NOT AVBL
JACKSONVILLE   SUNNY     42  18  37 N10G17    30.36F
PINEY ISLAND   SUNNY    N/A N/A N/A N16G24    30.33F
WILMINGTON     SUNNY     43  20  39 NW12      30.37F


$$

NCZ011>013-027>030-043-044-078>080-089-090>093-098-091800-
COASTAL PLAIN

CITY           SKY/WX    TMP DP  RH WIND       PRES   REMARKS
AHOSKIE        SUNNY     38  15  40 N10G17    30.37S
CLINTON        SUNNY     41  21  44 N6        30.39F
ELIZABETHTOWN  SUNNY     42  20  40 N7        30.39F
GOLDSBORO      SUNNY     41  16  36 N12       30.36F
GREENVILLE     SUNNY     41  19  42 N8        30.37F
HAVELOCK       SUNNY     43  20  39 NW14      30.36F
KENANSVILLE    SUNNY     41  19  42 N10       30.38F
KINSTON        SUNNY     41  19  42 NW7       30.38F
NEW BERN       SUNNY     41  20  43 NW10      30.37F
RICHLANDS      SUNNY     41  19  41 NW8       30.37F
ROCKY MOUNT    SUNNY     40  18  41 NW12      30.39F
WASHINGTON     SUNNY     41  17  38 W13       30.36F
WHITEVILLE     SUNNY     42  19  40 W7        30.38F

$$

AMZ130-135-150-152-154-156-158-170-250-252-270-ANZ085-086-088-633-658-670-091800-
MARINE OBSERVATIONS

STATION/POSITION TIME  TEMP    WIND        PRES    WAVE   SWELL
                       AIR SEA DIR/SP/G            HT/PER HT/PER
                 (UTC) (F)     (DEG/KT/KT) (MB)    (FT/S) (FT/S)
CHESAPEAKE LIGHT NOT AVBL
64 E VA BEACH    1650   40 58  340/ 16/ 21 1024.9    6/ 7   2/11
DUCK             1700   37 53  320/ 16/ 20 1025.9
2 E DUCK         NOT AVBL
OREGON INLET     1700          310/ 14/ 19 1026.2
13E OREGON INLT  NOT AVBL
HATTERAS CG      1700   40 54  330/ 16/ 19 1026.0
DIAMOND BUOY     1650   42 75  350/ 19/ 23 1025.8    5/ 8   3/14
CAPE LOOKOUT     1700   41     320/ 12/ 15 1026.9
BEAUFORT LAB     1700   41 52  330/  9/ 14 1026.3
30 SE NEW RVR IN 1708   43 69  360/ 12/ 19 1027.4
30 SE NEW RVR IN NOT AVBL
27 SE WRIGHTSVLE 1708   43 69  360/ 12/ 21 1027.4
5 SE WRIGHTSVLE  1708   40 61  360/ 12/ 21 1027.3
225 S CAPE HAT   1650   61 73  350/ 17/ 21 1022.7    6/ 8   3/11
41 SE CHARLESTON 1650   48 73  360/ 17/ 21 1027.8    6/ 6

$$



USA.gov is the U.S. government's official web portal to all federal, state and local government web resources and services.